Regional Weather Roundup
Issued by NWS

Home | Current Version | Previous Version | Text Only | Print | Product List | Glossary Off
Versions: 1 2 3 4 5 6 7 8 9 10 11 12 13 14 15 16 17 18 19 20 21 22 23 24 25 26 27 28 29 30 31 32 33 34 35 36 37 38 39 40 41 42 43 44 45 46 47 48 49 50

000
ASUS43 KMPX 211010
RWRMN
WEATHER ROUNDUP FOR MINNESOTA
NATIONAL WEATHER SERVICE TWIN CITIES/CHANHASSEN MN
500 AM CDT TUE OCT 21 2014


NOTE: "FAIR" INDICATES FEW OR NO CLOUDS BELOW 12,000 FEET WITH NO
SIGNIFICANT WEATHER AND/OR OBSTRUCTIONS TO VISIBILITY. N/A MEANS
CURRENT SKY AND/OR WEATHER CONDITIONS ARE NOT AVAILABLE.

MNZ060>063-068>070-211100-
   Twin Cities Metro

CITY           SKY/WX    TMP DP  RH WIND       PRES   REMARKS
TWIN CITIES    CLEAR     38  36  92 N3        30.15R
ST PAUL        CLEAR     38  36  92 W3        30.17R
CRYSTAL        CLEAR     34  32  92 CALM      30.14S
BLAINE         CLEAR     36  36 100 CALM      30.15S
LAKEVILLE      CLEAR     32  32 100 CALM      30.15R FOG
EDEN PRAIRIE   CLEAR     39  38  96 NE5       30.14R
SOUTH ST PAUL  CLEAR     39  36  89 CALM      30.15S
LAKE ELMO      FOG       32  32 100 CALM      30.16S VSB 1/4
$$
MNZ001>005-007-008-013>017-022>024-027-028-211100-
   Northwest Minnesota

CITY           SKY/WX    TMP DP  RH WIND       PRES   REMARKS
BEMIDJI        CLEAR     33  33  98 SE6       30.12S WCI  28
HALLOCK        CLEAR     39  37  93 SE10      30.04F
ROSEAU         CLEAR     37  34  87 SE7       30.09F
WARROAD        CLEAR     36  32  87 SE7       30.11F
THIEF RVR FALL CLEAR     36  34  93 SE9       30.08S
CROOKSTON      CLEAR     39  37  93 SE10      30.06F
FOSSTON        CLEAR     37  34  87 SE10      30.09S
DETROIT LAKES  CLEAR     39  37  93 SE10      30.10S
MOORHEAD       CLEAR     43  43 100 SE6       30.07S
PARK RAPIDS    FAIR      37  36  96 SE9       30.12S
MAHNOMEN       FAIR      39  37  90 SE6       30.08S
$$
MNZ006-009>011-018-025>026-211100-
   North Central Minnesota

CITY           SKY/WX    TMP DP  RH WIND       PRES   REMARKS
BAUDETTE       PTCLDY    34  31  88 SE6       30.14R WCI  29
FLAG ISLAND    CLEAR     43  37  81 SE18      30.11S
INTL FALLS     CLOUDY    40  34  79 SE7       30.16S
WASKISH        PTCLDY    30  30 100 CALM      30.14R
BIG FORK       PTCLDY    39  36  87 SE3       30.16S
LONGVILLE      CLEAR     28  27  93 CALM      30.14S
GRAND RAPIDS   MOCLDY    30  27  86 SE3       30.15S
CRANE LAKE     CLOUDY    39  36  87 S3        30.20R
ORR            PTCLDY    37  30  75 CALM      30.15S
COOK           CLOUDY    37  34  87 CALM      30.17S
WALKER         FAIR      38  35  90 SE5       30.13S
$$
MNZ012-019>021-037-211100-
   Northeast Minnesota

CITY           SKY/WX    TMP DP  RH WIND       PRES   REMARKS
DULUTH         CLOUDY    43  37  79 E10       30.17R
ELY            CLOUDY    37  32  81 E3        30.18R
HIBBING        CLOUDY    40  34  79 SE3       30.17R
EVELETH        CLOUDY    39  34  81 CALM      30.18R
DULUTH HARBOR  CLOUDY    46  39  76 E12       30.19S
TWO HARBORS    CLOUDY    45  27  49 E5        30.17R
SILVER BAY     PTCLDY    43  34  70 NE5       30.18R
GRAND MARAIS     N/A     40  31  70 N5        30.23R
G MARAIS ARPRT CLOUDY    34  27  75 CALM      30.20R
$$
MNZ029>031-032-039>041-046>048-054>057-064-211100-
   West Central Minnesota

CITY           SKY/WX    TMP DP  RH WIND       PRES   REMARKS
FERGUS FALLS   CLEAR     43  36  75 SE10      30.10S
WHEATON        CLEAR     34  30  86 SE8       30.10R WCI  27
MORRIS         CLEAR     41  37  87 SE9       30.09R
ALEXANDRIA     CLEAR     39  36  89 SE9       30.13R
ELBOW LAKE     FAIR      41  37  86 SE10      30.09S
WADENA         CLEAR     34  34 100 E5        30.12R WCI  30
GLENWOOD       CLEAR     36  36 100 E8        30.12S
APPLETON       CLEAR     39  36  87 SE8       30.10R
BENSON         CLEAR     39  37  93 SE5       30.11S
ORTONVILLE     CLEAR     39  36  87 SE7       30.08S
MADISON        CLEAR     39  36  87 SE6       30.10R
WILLMAR        FAIR      41  36  81 E8        30.13S
$$
MNZ033>034-036-042>043-049>051-058-059-211100-
   Central Minnesota

CITY           SKY/WX    TMP DP  RH WIND       PRES   REMARKS
ST CLOUD       CLEAR     40  35  83 E3        30.15R
SAUK CENTRE    FAIR      36  35  96 E7        30.13S
PAYNESVILLE    CLEAR     37  35  94 NE3       30.14R
AITKIN         PTCLDY    28  25  86 CALM      30.15R
PINE RIVER     CLEAR     28  27  93 CALM      30.17S
BRAINERD       CLEAR     29  29 100 CALM      30.15S
STAPLES        CLEAR     34  34 100 CALM      30.13S
LONG PRAIRIE   FAIR      34  34 100 E3        30.13F
LITTLE FALLS   CLEAR     37  34  87 E5        30.14S
LITCHFIELD     CLEAR     37  37 100 E3        30.14S
BUFFALO        CLEAR     35  33  92 CALM      30.16S
MAPLE LAKE     CLEAR     36  36  99 CALM      30.16R
$$
MNZ037-044-045-052-053-211100-
   East Central Minnesota

CITY           SKY/WX    TMP DP  RH WIND       PRES   REMARKS
PRINCETON      CLEAR     32  30  93 CALM      30.16S
MORA           CLEAR     32  30  93 CALM      30.18R
CAMBRIDGE      CLEAR     34  27  75 CALM      30.14S
RUSH CITY      CLEAR     30  29  96 CALM      30.17R
MOOSE LAKE     CLEAR     36  34  93 CALM      30.15R
HINCKLEY       FAIR      30  30 100 CALM      30.16S
CLOQUET        CLOUDY    43  37  81 E5        30.17R
MCGREGOR       PTCLDY    32  32 100 CALM      30.16S
$$
MNZ071>073-080-081-089-090-097-098-211100-
   Southwest Minnesota

CITY           SKY/WX    TMP DP  RH WIND       PRES   REMARKS
MONTEVIDEO     CLEAR     37  37 100 S7        30.11S
GRANITE FALLS  CLEAR     39  36  89 E5        30.12R
CANBY          CLEAR     34  33  96 SE3       30.10S
MARSHALL       CLEAR     36  28  75 S3        30.09R
REDWOOD FALLS  CLEAR     40  37  89 E6        30.11S
OLIVIA         CLEAR     43  37  81 E8        30.11S
PIPESTONE      CLEAR     43  36  75 SE7       30.07F
WINDOM         CLEAR     39  36  87 CALM      30.10S
WORTHINGTON    PTCLDY    34  30  86 CALM      30.11S
JACKSON        CLEAR     39  34  81 CALM      30.11R
TRACY          CLEAR     42  37  79 S6        30.10S
SLAYTON        PTCLDY    38  33  84 CALM      30.11R
$$
MNZ065>067-074>077-082>085-091>093-211100-
   South Central Minnesota

CITY           SKY/WX    TMP DP  RH WIND       PRES   REMARKS
MANKATO        CLEAR     43  36  75 E6        30.13R
NEW ULM        CLEAR     39  37  93 E5        30.12S
ST JAMES       CLEAR     37  36  93 CALM      30.13R
FAIRMONT       CLEAR     36  28  75 CALM      30.11S
GLENCOE        CLEAR     36  35  97 CALM      30.14R
FARIBAULT      CLEAR     30  28  93 CALM      30.14S
OWATONNA       FOG       30  30 100 CALM      30.14R VSB 1/2
WASECA         CLEAR     34  32  93 CALM      30.15R
ALBERT LEA     CLEAR     36  36 100 CALM      30.12S
$$
MNZ078>079-086>088-094>096-211100-
   Southeast Minnesota

CITY           SKY/WX    TMP DP  RH WIND       PRES   REMARKS
ROCHESTER      CLEAR     40  37  89 N5        30.14R
RED WING       CLEAR     36  34  93 CALM      30.15R
STANTON        CLEAR     32  31  94 CALM      30.14R FOG
DODGE CENTER   CLEAR     37  36  93 NE3       30.13S
WINONA         CLEAR     37  36  93 CALM      30.16R
AUSTIN         CLEAR     34  34 100 CALM      30.13R
PRESTON        CLEAR     39  36  89 CALM      30.14R
$$
ABBREVIATIONS USED IN REMARKS
   TC - TEMPERATURES IN CELSIUS
  WCI - WIND CHILL INDEX
   HX - HEAT INDEX
  VSB - VISIBILITY
$$



USA.gov is the U.S. government's official web portal to all federal, state and local government web resources and services.